Showing default

RESURS O1, 23342

Orbit data source: Space-Track

RESURS O1, 23342 is a payload satellite owned by Priroda (CIS) in SSO that was launched on Fri, 04 Nov 1994 UTC via a ZENIT-2 launch vehicle from the Tyuratam Missile And Space Complex (TTMTR). Payload-class satellites include a variety of spacecraft equipped with specific instruments for various scientific and technological missions. These include communications satellites like Starlink; space stations such as the ISS; scientific satellites like the Hubble; Earth observation satellites from companies like Planet Labs, Umbra, and HawkEye 360; GPS; miniature CubeSats for education and research; and military/defense satellites.

Loading next visibility...
Identifier
23342, 1994-074A
Orbit
SSO
Country
Flag of CISCIS
Related business
Manufacturer
VNIIEM
Mission
Civil Imaging
Bus & Motor
RESURS-O, Unknown motor
Mass
1,900 kg wet, 1,900 kg dry
Launch date (UTC)
1994-11-04 (31 years ago)
Launch vehicle
ZENIT-2
Launch site
Tyuratam Missile And Space Complex (TTMTR)
Object type
Payload
Rocket body
Debris
Shape & HBR
Cyl + 2 Pan, 5.8 m
Radar Cross Section
11.656 m², Large (>1 m²)

Expand to show TLE details & history
Last TLE update: 3 hours ago

TLE from 3 hours ago
0 RESURS O1
1 23342U 94074A   26034.32455941  .00000916  00000-0  11380-3 0  9998
2 23342  97.6738  57.8165 0001825 109.3774 250.7639 14.84873968684069
Epoch: 2026-02-03T07:47Z
TLE epoch observation values (Epoch: 2026-02-03T07:47:21.933Z)
Latitude
0.00004°
Longitude
167.46798°
Altitude
617.437 km
Speed
7.55 km/s
True Right ascension
03h 51m 15s
True Declination
0° 00' 00"
Sunlit
Object was in daylight at epoch
Visualization orbit readout
Latitude
Unknown
Longitude
Unknown
Altitude
Unknown
Speed
Unknown
Apparent Right ascension
Unknown
Apparent Declination
Unknown
Sunlit
N/A
Visualization observer readout
Local Sidereal Time
13:03:22
Azimuth
Unknown
Elevation
Unknown
Doppler factor
Unknown
Orbital elements
Apogee altitude
612.281 km
Perigee altitude
609.73 km
Semi-major axis
6,989.143 km
Eccentricity
0.00018
Inclination
97.6738°
RAAN
57.8165°
Arg. of periapsis
109.3774°
True anomaly
250.74416°
Mean anomaly
250.7639°
Eccentric anomaly
250.75403°
Mean motion
3.71456 °/min
Orbital period
96.92 mins
BSTAR
0.0001138
Loading maneuver chart data...
Computing Atmospheric mass density...

Documentation

Showing up to 5 results
|